| time (UTC) | temp C | wind direction | speed KPH | gust KPH | rain 1hr cm | rain 24hr cm | rain mn cm | humidity % | barometer mb |
| 20260906074520 | 10 | 338 | 11.3 | 32.2 | 0.00 | 0.00 | 0.00 | 74 | 1005.7 |
| 20260906073520 | 11 | 338 | 11.3 | 27.4 | 0.00 | 0.00 | 0.00 | 73 | 1005.6 |
| 20260906072520 | 11 | 338 | 14.5 | 29.0 | 0.00 | 0.00 | 0.00 | 73 | 1005.4 |
| 20260906071520 | 10 | 0 | 16.1 | 30.6 | 0.00 | 0.00 | 0.00 | 74 | 1005.3 |
| 20260906070540 | 10 | 338 | 12.9 | 32.2 | 0.00 | 0.00 | 0.00 | 74 | 1005.2 |
| 20260906050520 | 7 | 338 | 3.2 | 12.9 | 0.00 | 0.00 | 0.00 | 1 | 1004.1 |
| 20260906045520 | 7 | 293 | 6.4 | 19.3 | 0.00 | 0.00 | 0.00 | 1 | 1004.1 |
| 20260906044519 | 7 | 0 | 3.2 | 12.9 | 0.00 | 0.00 | 0.00 | 1 | 1004.0 |
| 20260906043520 | 7 | 315 | 3.2 | 12.9 | 0.00 | 0.00 | 0.00 | 1 | 1003.9 |
| 20260906042520 | 7 | 315 | 1.6 | 16.1 | 0.00 | 0.00 | 0.00 | 1 | 1003.9 |
| 20260906041520 | 8 | 293 | 1.6 | 12.9 | 0.00 | 0.00 | 0.00 | 1 | 1003.9 |
| 20260906040521 | 8 | 315 | 4.8 | 17.7 | 0.00 | 0.00 | 0.00 | 1 | 1003.9 |
| 20260906035541 | 8 | 0 | 3.2 | 16.1 | 0.00 | 0.00 | 0.00 | 1 | 1003.8 |
| 20260906025520 | 8 | 315 | 1.6 | 11.3 | 0.00 | 0.00 | 0.00 | 1 | 1003.5 |
| 20260906024520 | 8 | 293 | 1.6 | 8.0 | 0.00 | 0.00 | 0.00 | 1 | 1003.4 |
| 20260906024254 | 8 | 338 | 1.6 | 8.0 | 0.00 | 0.00 | 0.00 | 1 | 1003.3 |
| 20260906022520 | 8 | 315 | 1.6 | 8.0 | 0.00 | 0.00 | 0.00 | 1 | 1003.3 |
| 20260906021521 | 8 | 338 | 1.6 | 8.0 | 0.00 | 0.00 | 0.00 | 1 | 1003.1 |
| 20260906020521 | 8 | 0 | 1.6 | 8.0 | 0.00 | 0.00 | 0.00 | 1 | 1003.1 |
| 20260906015520 | 8 | 338 | 1.6 | 8.0 | 0.00 | 0.00 | 0.00 | 4 | 1003.0 |
| 20260906014541 | 8 | 338 | 3.2 | 14.5 | 0.00 | 0.00 | 0.00 | 10 | 1002.9 |
| 20260905234520 | 9 | 338 | 8.0 | 19.3 | 0.00 | 0.03 | 0.00 | 1 | 1001.6 |
| 20260905233520 | 9 | 315 | 9.7 | 22.5 | 0.00 | 0.03 | 0.00 | 1 | 1001.5 |
| 20260905232520 | 9 | 338 | 4.8 | 16.1 | 0.00 | 0.03 | 0.00 | 1 | 1001.5 |
| 20260905231520 | 9 | 338 | 3.2 | 12.9 | 0.00 | 0.03 | 0.00 | 1 | 1001.3 |
| 20260905230520 | 9 | 0 | 3.2 | 17.7 | 0.00 | 0.03 | 0.00 | 1 | 1001.3 |
| 20260905225520 | 9 | 315 | 3.2 | 11.3 | 0.00 | 0.03 | 0.00 | 1 | 1001.3 |
| 20260905224520 | 9 | 0.0 | 4.8 | 0.00 | 0.03 | 0.00 | 1 | 1001.2 | |
| 20260905223600 | 9 | 338 | 1.6 | 9.7 | 0.00 | 0.03 | 0.00 | 1 | 1001.1 |
| 20260905203520 | 10 | 0 | 4.8 | 20.9 | 0.00 | 0.03 | 0.03 | 18 | 1000.1 |
| 20260905202520 | 10 | 0 | 4.8 | 16.1 | 0.00 | 0.03 | 0.03 | 23 | 1000.0 |
| 20260905201520 | 10 | 338 | 4.8 | 14.5 | 0.00 | 0.03 | 0.03 | 25 | 999.9 |
| 20260905200520 | 10 | 338 | 6.4 | 17.7 | 0.00 | 0.03 | 0.03 | 24 | 999.8 |
| 20260905195520 | 10 | 315 | 8.0 | 20.9 | 0.00 | 0.03 | 0.03 | 23 | 999.8 |
| 20260905194520 | 10 | 338 | 6.4 | 14.5 | 0.00 | 0.03 | 0.03 | 25 | 999.7 |
| 20260905193520 | 10 | 0 | 8.0 | 24.1 | 0.00 | 0.03 | 0.03 | 24 | 999.6 |
| 20260905192520 | 10 | 338 | 8.0 | 16.1 | 0.00 | 0.03 | 0.03 | 19 | 999.6 |
| 20260905191521 | 10 | 315 | 8.0 | 24.1 | 0.00 | 0.03 | 0.03 | 14 | 999.5 |
| 20260905190520 | 10 | 338 | 3.2 | 12.9 | 0.00 | 0.03 | 0.03 | 10 | 999.5 |
| 20260905185520 | 10 | 338 | 4.8 | 14.5 | 0.00 | 0.03 | 0.03 | 10 | 999.4 |
| 20260905184520 | 10 | 293 | 4.8 | 16.1 | 0.00 | 0.03 | 0.03 | 9 | 999.3 |
| 20260905183520 | 11 | 315 | 6.4 | 16.1 | 0.00 | 0.03 | 0.03 | 4 | 999.2 |
| 20260905182541 | 11 | 338 | 4.8 | 12.9 | 0.00 | 0.03 | 0.03 | 6 | 999.2 |
| 20260905162520 | 11 | 338 | 6.4 | 16.1 | 0.00 | 0.03 | 0.03 | 10 | 997.6 |
| 20260905161520 | 11 | 338 | 9.7 | 19.3 | 0.00 | 0.03 | 0.03 | 18 | 997.6 |
| 20260905160520 | 12 | 338 | 6.4 | 16.1 | 0.00 | 0.03 | 0.03 | 26 | 997.3 |
| 20260905155520 | 12 | 0 | 4.8 | 12.9 | 0.00 | 0.03 | 0.03 | 33 | 997.2 |
| 20260905154520 | 13 | 0 | 11.3 | 22.5 | 0.00 | 0.03 | 0.03 | 45 | 997.1 |
| 20260905153520 | 13 | 338 | 8.0 | 19.3 | 0.00 | 0.03 | 0.03 | 58 | 997.1 |
| 20260905152520 | 14 | 315 | 8.0 | 29.0 | 0.00 | 0.03 | 0.03 | 63 | 996.9 |
| 20260905151520 | 14 | 293 | 1.6 | 4.8 | 0.00 | 0.03 | 0.03 | 67 | 996.8 |
| 20260905150520 | 15 | 315 | 6.4 | 14.5 | 0.00 | 0.03 | 0.03 | 71 | 996.7 |
| 20260905145520 | 15 | 315 | 1.6 | 11.3 | 0.00 | 0.03 | 0.03 | 64 | 996.6 |
| 20260905144520 | 15 | 315 | 1.6 | 11.3 | 0.00 | 0.03 | 0.03 | 66 | 996.5 |
| 20260905143520 | 15 | 315 | 6.4 | 16.1 | 0.00 | 0.03 | 0.03 | 70 | 996.5 |
| 20260905142520 | 15 | 315 | 4.8 | 17.7 | 0.00 | 0.03 | 0.03 | 71 | 996.3 |
| 20260905141520 | 15 | 293 | 6.4 | 17.7 | 0.00 | 0.03 | 0.03 | 71 | 996.1 |
| 20260905140520 | 15 | 270 | 4.8 | 16.1 | 0.00 | 0.03 | 0.03 | 71 | 996.0 |
| 20260905135520 | 15 | 293 | 1.6 | 6.4 | 0.00 | 0.03 | 0.03 | 70 | 995.9 |
| 20260905134520 | 15 | 315 | 1.6 | 11.3 | 0.00 | 0.03 | 0.03 | 69 | 995.9 |
| 20260905133520 | 15 | 270 | 1.6 | 14.5 | 0.00 | 0.03 | 0.03 | 64 | 995.8 |
| 20260905132520 | 15 | 270 | 6.4 | 12.9 | 0.00 | 0.03 | 0.03 | 64 | 995.8 |
| 20260905131520 | 15 | 315 | 1.6 | 4.8 | 0.00 | 0.03 | 0.03 | 61 | 995.8 |
| 20260905130520 | 15 | 315 | 1.6 | 6.4 | 0.00 | 0.03 | 0.03 | 61 | 995.9 |
| 20260905125520 | 15 | 315 | 3.2 | 9.7 | 0.00 | 0.03 | 0.03 | 63 | 995.9 |
| 20260905124520 | 15 | 315 | 1.6 | 4.8 | 0.00 | 0.03 | 0.03 | 54 | 995.8 |
| 20260905123520 | 15 | 293 | 1.6 | 6.4 | 0.00 | 0.03 | 0.03 | 52 | 995.7 |
| 20260905122540 | 15 | 248 | 4.8 | 16.1 | 0.00 | 0.03 | 0.03 | 59 | 995.5 |
| 20260905102521 | 15 | 270 | 4.8 | 14.5 | 0.00 | 0.03 | 0.03 | 73 | 995.0 |
| 20260905101520 | 15 | 315 | 4.8 | 14.5 | 0.00 | 0.03 | 0.03 | 71 | 994.9 |
| 20260905100520 | 15 | 270 | 4.8 | 14.5 | 0.00 | 0.03 | 0.03 | 71 | 994.8 |
| 20260905095520 | 15 | 293 | 4.8 | 11.3 | 0.00 | 0.03 | 0.03 | 70 | 994.8 |
| 20260905094520 | 14 | 315 | 3.2 | 17.7 | 0.00 | 0.03 | 0.03 | 67 | 994.7 |
| 20260905093520 | 13 | 293 | 1.6 | 11.3 | 0.00 | 0.03 | 0.03 | 62 | 994.7 |
| 20260905092520 | 13 | 293 | 1.6 | 8.0 | 0.00 | 0.03 | 0.03 | 59 | 994.7 |
| 20260905091520 | 13 | 293 | 1.6 | 6.4 | 0.00 | 0.03 | 0.03 | 50 | 994.6 |
| 20260905090520 | 13 | 293 | 1.6 | 8.0 | 0.00 | 0.03 | 0.03 | 54 | 994.6 |
| 20260905085521 | 13 | 293 | 4.8 | 14.5 | 0.00 | 0.03 | 0.03 | 44 | 994.4 |
| 20260905084520 | 13 | 293 | 3.2 | 11.3 | 0.00 | 0.03 | 0.03 | 36 | 994.5 |
| 20260905083520 | 13 | 0 | 3.2 | 8.0 | 0.00 | 0.03 | 0.03 | 1 | 994.4 |
| 20260905082520 | 13 | 270 | 1.6 | 9.7 | 0.00 | 0.03 | 0.03 | 1 | 994.4 |
| 20260905081520 | 13 | 0 | 1.6 | 8.0 | 0.00 | 0.03 | 0.03 | 1 | 994.3 |
| 20260905080520 | 12 | 338 | 1.6 | 9.7 | 0.00 | 0.03 | 0.03 | 1 | 994.3 |
| 20260905075520 | 13 | 0.0 | 4.8 | 0.00 | 0.03 | 0.03 | 1 | 994.3 |